Location: Kolin
(50.0330°N, 15.2000°E)
Time: 04:44:16
(UTC+01:00)

ISS - Visible Passes

Search period start: 22 March 2023 00:00
Search period end: 01 April 2023 01:00
Orbit: 414 x 423 km, 51.6° (Epoch: 22 March)

Date Brightness Start Highest point End Pass type
(mag) Time Alt. Az. Time Alt. Az. Time Alt. Az.
22 Mar -3.7 18:41:18 10° WSW 18:44:38 73° SSE 18:47:59 10° ENE visible
22 Mar -3.6 20:18:10 10° W 20:21:30 63° N 20:21:37 63° NNE visible
23 Mar -3.5 19:30:18 10° W 19:33:38 66° N 19:35:46 20° ENE visible
23 Mar -1.5 21:07:13 10° WNW 21:08:43 24° WNW 21:08:43 24° WNW visible
24 Mar -3.8 20:19:21 10° WNW 20:22:42 71° N 20:22:47 70° NNE visible
25 Mar -3.5 19:31:26 10° W 19:34:46 65° N 19:36:50 21° E visible
25 Mar -1.5 21:08:16 10° WNW 21:09:46 24° W 21:09:46 24° W visible
26 Mar -3.9 21:20:21 10° WNW 21:23:42 80° SSW 21:23:46 79° S visible
27 Mar -3.8 20:32:23 10° WNW 20:35:45 82° NNE 20:37:45 22° E visible
27 Mar -1.4 22:09:21 10° W 22:10:41 20° W 22:10:41 20° W visible
28 Mar -3.2 21:21:16 10° W 21:24:28 43° SSW 21:24:40 43° SSW visible
29 Mar -3.5 20:33:12 10° WNW 20:36:32 61° SSW 20:38:39 20° SE visible
29 Mar -1.0 22:10:50 10° WSW 22:11:35 13° WSW 22:11:35 13° WSW visible
30 Mar -2.0 21:22:19 10° W 21:24:57 22° SW 21:25:34 21° SSW visible
31 Mar -2.4 20:34:02 10° W 20:37:03 31° SSW 20:39:36 13° SSE visible
